sat.trackr.live / text

‹ back to catalog

STARLINK-32716

NORAD 63031 · 2025-034C

PAYLOAD ACTIVE UNKNOWN

§ Identity

Operator
Country
US
Launch date
2025-02-18
Launch site
AFETR
Launch vehicle
Mass (kg)
RCS (m²)

Purposes: comms

External: N2YO · Heavens-Above · Gunter

§ Orbital elements

Epoch: 2026-09-21T21:49:11.275392Z

Period
93.85 min
Inclination
53.1600°
Eccentricity
0.0001450
Mean motion
15.34398153 rev/d
Perigee alt
461.7 km
Apogee alt
463.7 km
Semi-major
6,840.8 km
B*
4.5232e-4
RAAN
62.8189°
Arg perigee
51.3667°
Mean anomaly
308.7466°
Rev number
8,918

§ Raw data

STARLINK-327161 63031U 25034C   26264.90915828  .00014936  00000+0  45232-3 0  99902 63031  53.1600  62.8189 0001450  51.3667 308.7466 15.34398153 89184

JSON: /api/v1/satellites/63031 · /tle

For live sub-satellite position, see the globe view (requires WebGL).

§ Visibility from observer

Set your observer location to see the next 7 days of passes ≥ 10°. The values pass through the URL so the page stays shareable.

No JS? Fill the form by hand. The geolocation button needs JavaScript.